SBI3201 UNNT-UNOO

Flight info

Callsign SBI3201
Flight time 1h 3m
Altitude 36000
Route OGAMA1J OGAMA A308 OSNAB G828 SZ A487 URUKI A844 RUMOD RUMOD5B
Aircraft A21N/M-SDE2E3FGHIRWXY/LB1

Departure

Time 2026-04-22 16:22
Airport Novosibirsk Tolmachevo Airport (UNNT)

Arrival

Time 2026-04-22 17:26
Airport Omsk Central Airport (UNOO)
Time Latitude Longitude Altitude Speed Heading
2026-04-22 15:42 55.01039 82.66835 373 ft 0 kts 171°
2026-04-22 15:54 55.01040 82.66835 400 ft 0 kts 171°
2026-04-22 16:05 55.01048 82.66832 372 ft 2 kts 169°
2026-04-22 16:05 55.01064 82.66829 372 ft 2 kts 172°
2026-04-22 16:05 55.01081 82.66827 372 ft 2 kts 177°
2026-04-22 16:06 55.01097 82.66827 372 ft 2 kts 184°
2026-04-22 16:06 55.01114 82.66830 372 ft 2 kts 193°
2026-04-22 16:06 55.01130 82.66837 372 ft 2 kts 189°
2026-04-22 16:06 55.01137 82.66840 372 ft 0 kts 171°
2026-04-22 16:14 55.01129 82.66841 372 ft 4 kts 174°
2026-04-22 16:15 55.01108 82.66793 372 ft 8 kts 258°
2026-04-22 16:15 55.01087 82.66664 372 ft 15 kts 250°
2026-04-22 16:15 55.01039 82.66459 373 ft 22 kts 247°
2026-04-22 16:15 55.00984 82.66275 373 ft 16 kts 237°
2026-04-22 16:16 55.00956 82.66105 373 ft 14 kts 261°
2026-04-22 16:16 55.00943 82.65949 373 ft 12 kts 262°
2026-04-22 16:16 55.00932 82.65811 373 ft 11 kts 261°
2026-04-22 16:16 55.00920 82.65683 373 ft 11 kts 261°
2026-04-22 16:17 55.00908 82.65538 373 ft 13 kts 261°
2026-04-22 16:17 55.00893 82.65376 373 ft 14 kts 261°
2026-04-22 16:17 55.00880 82.65194 373 ft 16 kts 264°
2026-04-22 16:17 55.00876 82.64998 373 ft 16 kts 277°
2026-04-22 16:18 55.00897 82.64820 373 ft 14 kts 283°
2026-04-22 16:18 55.00918 82.64661 373 ft 13 kts 283°
2026-04-22 16:18 55.00935 82.64520 373 ft 11 kts 282°
2026-04-22 16:18 55.00951 82.64393 373 ft 11 kts 282°
2026-04-22 16:19 55.00973 82.64226 373 ft 17 kts 283°
2026-04-22 16:19 55.01005 82.64044 374 ft 9 kts 307°
2026-04-22 16:19 55.01051 82.64004 375 ft 6 kts 344°
2026-04-22 16:19 55.01085 82.63991 376 ft 4 kts 350°
2026-04-22 16:20 55.01116 82.63993 375 ft 6 kts 12°
2026-04-22 16:20 55.01155 82.64094 375 ft 15 kts 78°
2026-04-22 16:20 55.01157 82.64122 375 ft 0 kts 80°
2026-04-22 16:21 55.01158 82.64126 375 ft 3 kts 80°
2026-04-22 16:21 55.01182 82.64381 373 ft 54 kts 81°
2026-04-22 16:22 55.01428 82.67099 374 ft 161 kts 81°
2026-04-22 16:22 55.01615 82.69136 787 ft 169 kts 81°
2026-04-22 16:22 55.01798 82.71151 1457 ft 167 kts 84°
2026-04-22 16:23 55.02182 82.75496 1870 ft 204 kts 84°
2026-04-22 16:23 55.02409 82.78045 2361 ft 216 kts 83°
2026-04-22 16:23 55.02647 82.80675 2986 ft 224 kts 83°
2026-04-22 16:24 55.02810 82.82475 3376 ft 230 kts 82°
2026-04-22 16:24 55.04541 82.87327 4223 ft 262 kts 28°
2026-04-22 16:24 55.06311 82.88177 4747 ft 269 kts 356°
2026-04-22 16:25 55.08092 82.87339 5427 ft 267 kts 325°
2026-04-22 16:25 55.10080 82.82107 6915 ft 264 kts 289°
2026-04-22 16:25 55.10754 82.79109 7677 ft 266 kts 289°
2026-04-22 16:26 55.11428 82.76096 8423 ft 267 kts 289°
2026-04-22 16:26 55.12110 82.73062 9185 ft 269 kts 289°
2026-04-22 16:26 55.12799 82.70010 9926 ft 271 kts 289°
2026-04-22 16:26 55.13506 82.66868 10260 ft 288 kts 289°
2026-04-22 16:27 55.14267 82.63476 10389 ft 310 kts 289°
2026-04-22 16:27 55.15081 82.59854 10568 ft 329 kts 290°
2026-04-22 16:27 55.15930 82.56080 11079 ft 336 kts 290°
2026-04-22 16:27 55.16790 82.52263 11735 ft 339 kts 290°
2026-04-22 16:28 55.17655 82.48419 12421 ft 341 kts 290°
2026-04-22 16:28 55.18524 82.44545 13103 ft 343 kts 290°
2026-04-22 16:28 55.19395 82.40640 13772 ft 345 kts 290°
2026-04-22 16:28 55.20270 82.36709 14366 ft 348 kts 290°
2026-04-22 16:29 55.21149 82.32754 14947 ft 350 kts 290°
2026-04-22 16:29 55.22023 82.28818 15514 ft 352 kts 290°
2026-04-22 16:29 55.22912 82.24799 16077 ft 355 kts 290°
2026-04-22 16:29 55.23806 82.20751 16639 ft 357 kts 290°
2026-04-22 16:30 55.24413 82.17995 17009 ft 359 kts 290°
2026-04-22 16:30 55.25610 82.12568 17733 ft 362 kts 290°
2026-04-22 16:30 55.26520 82.08429 18250 ft 365 kts 290°
2026-04-22 16:30 55.27435 82.04263 18701 ft 367 kts 290°
2026-04-22 16:31 55.28350 82.00086 19182 ft 369 kts 290°
2026-04-22 16:31 55.29273 81.95858 19643 ft 371 kts 290°
2026-04-22 16:31 55.30196 81.91621 20108 ft 372 kts 290°
2026-04-22 16:31 55.31121 81.87362 20564 ft 374 kts 290°
2026-04-22 16:32 55.31996 81.83054 21012 ft 376 kts 283°
2026-04-22 16:32 55.32373 81.78509 21447 ft 377 kts 276°
2026-04-22 16:32 55.32631 81.73908 21901 ft 379 kts 275°
2026-04-22 16:32 55.32874 81.69286 22347 ft 381 kts 275°
2026-04-22 16:33 55.33111 81.64634 22794 ft 383 kts 275°
2026-04-22 16:33 55.33347 81.59966 23233 ft 385 kts 275°
2026-04-22 16:33 55.33585 81.55267 23637 ft 387 kts 275°
2026-04-22 16:33 55.33826 81.50554 23996 ft 388 kts 275°
2026-04-22 16:34 55.34068 81.45818 24360 ft 390 kts 275°
2026-04-22 16:34 55.34308 81.41068 24733 ft 391 kts 275°
2026-04-22 16:34 55.34547 81.36298 25095 ft 392 kts 275°
2026-04-22 16:34 55.34785 81.31514 25459 ft 393 kts 275°
2026-04-22 16:35 55.35022 81.26718 25820 ft 394 kts 275°
2026-04-22 16:35 55.35255 81.21978 26172 ft 396 kts 275°
2026-04-22 16:35 55.35490 81.17149 26524 ft 397 kts 275°
2026-04-22 16:35 55.35721 81.12312 26862 ft 398 kts 275°
2026-04-22 16:36 55.35950 81.07457 27190 ft 399 kts 275°
2026-04-22 16:36 55.36178 81.02591 27521 ft 400 kts 275°
2026-04-22 16:36 55.36408 80.97702 27850 ft 402 kts 275°
2026-04-22 16:36 55.36639 80.92805 28178 ft 403 kts 275°
2026-04-22 16:37 55.36868 80.87894 28504 ft 404 kts 275°
2026-04-22 16:37 55.37093 80.82956 28821 ft 405 kts 275°
2026-04-22 16:37 55.37314 80.78027 29219 ft 404 kts 275°
2026-04-22 16:37 55.37534 80.73117 29669 ft 402 kts 275°
2026-04-22 16:38 55.37754 80.68236 30087 ft 399 kts 275°
2026-04-22 16:38 55.37970 80.63380 30459 ft 398 kts 275°
2026-04-22 16:38 55.38181 80.58546 30835 ft 396 kts 275°
2026-04-22 16:38 55.38387 80.53733 31202 ft 394 kts 274°
2026-04-22 16:39 55.38592 80.48933 31580 ft 392 kts 274°
2026-04-22 16:39 55.38794 80.44172 31978 ft 390 kts 274°
2026-04-22 16:39 55.38996 80.39428 32370 ft 388 kts 274°
2026-04-22 16:39 55.39196 80.34718 32752 ft 386 kts 274°
2026-04-22 16:40 55.39389 80.30019 33133 ft 384 kts 274°
2026-04-22 16:40 55.39574 80.25351 33513 ft 382 kts 274°
2026-04-22 16:40 55.39947 80.16067 34170 ft 379 kts 274°
2026-04-22 16:41 55.40131 80.11442 34411 ft 379 kts 274°
2026-04-22 16:41 55.40312 80.06864 34635 ft 380 kts 274°
2026-04-22 16:41 55.40493 80.02228 34850 ft 380 kts 274°
2026-04-22 16:41 55.40674 79.97586 35061 ft 381 kts 274°
2026-04-22 16:42 55.40851 79.92934 35261 ft 381 kts 274°
2026-04-22 16:42 55.41028 79.88272 35472 ft 382 kts 274°
2026-04-22 16:42 55.41206 79.83608 35674 ft 382 kts 274°
2026-04-22 16:42 55.41383 79.78934 35828 ft 383 kts 274°
2026-04-22 16:43 55.41557 79.74248 35855 ft 383 kts 274°
2026-04-22 16:43 55.41887 79.64894 35848 ft 383 kts 273°
2026-04-22 16:44 55.42214 79.55552 35848 ft 383 kts 273°
2026-04-22 16:44 55.42535 79.46192 35843 ft 383 kts 273°
2026-04-22 16:45 55.42858 79.36825 35837 ft 383 kts 273°
2026-04-22 16:45 55.43170 79.27453 35834 ft 383 kts 273°
2026-04-22 16:46 55.43475 79.18080 35832 ft 384 kts 273°
2026-04-22 16:46 55.43762 79.08694 35828 ft 384 kts 273°
2026-04-22 16:47 55.44043 78.99367 35822 ft 384 kts 272°
2026-04-22 16:47 55.44326 78.89971 35818 ft 384 kts 272°
2026-04-22 16:48 55.44607 78.80575 35811 ft 384 kts 272°
2026-04-22 16:48 55.44879 78.71166 35810 ft 385 kts 272°
2026-04-22 16:49 55.45136 78.61746 35807 ft 385 kts 272°
2026-04-22 16:49 55.45383 78.52321 35799 ft 385 kts 272°
2026-04-22 16:50 55.45626 78.42885 35796 ft 386 kts 272°
2026-04-22 16:50 55.45867 78.33441 35794 ft 386 kts 272°
2026-04-22 16:51 55.46104 78.23985 35796 ft 386 kts 272°
2026-04-22 16:51 55.46330 78.14533 35790 ft 386 kts 272°
2026-04-22 16:52 55.46546 78.05074 35787 ft 387 kts 272°
2026-04-22 16:52 55.46758 77.95608 35788 ft 387 kts 272°
2026-04-22 16:53 55.46966 77.86129 35784 ft 387 kts 271°
2026-04-22 16:53 55.47158 77.76697 35782 ft 387 kts 271°
2026-04-22 16:54 55.47344 77.67209 35778 ft 387 kts 271°
2026-04-22 16:54 55.47531 77.57709 35776 ft 388 kts 271°
2026-04-22 16:55 55.47706 77.48212 35774 ft 388 kts 271°
2026-04-22 16:55 55.47871 77.38709 35771 ft 388 kts 271°
2026-04-22 16:56 55.48031 77.29257 35767 ft 388 kts 271°
2026-04-22 16:56 55.48179 77.19738 35765 ft 388 kts 271°
2026-04-22 16:57 55.48320 77.10219 35764 ft 388 kts 271°
2026-04-22 16:57 55.48458 77.00695 35761 ft 389 kts 271°
2026-04-22 16:58 55.48576 76.92710 35758 ft 389 kts 271°
2026-04-22 16:58 55.48725 76.81629 35760 ft 389 kts 271°
2026-04-22 16:59 55.48840 76.72096 35758 ft 389 kts 271°
2026-04-22 16:59 55.48944 76.62550 35756 ft 389 kts 270°
2026-04-22 17:00 55.49042 76.53007 35755 ft 389 kts 270°
2026-04-22 17:00 55.49187 76.38691 35752 ft 389 kts 270°
2026-04-22 17:01 55.49264 76.29138 35749 ft 390 kts 270°
2026-04-22 17:01 55.49335 76.19570 35566 ft 390 kts 270°
2026-04-22 17:02 55.49369 76.14793 35317 ft 390 kts 270°
2026-04-22 17:02 55.49423 76.10077 34873 ft 390 kts 271°
2026-04-22 17:02 55.49592 76.05281 34157 ft 393 kts 274°
2026-04-22 17:02 55.49852 76.00458 33260 ft 398 kts 275°
2026-04-22 17:03 55.50153 75.95579 32393 ft 401 kts 275°
2026-04-22 17:03 55.50460 75.90678 31505 ft 404 kts 275°
2026-04-22 17:03 55.50757 75.85721 30672 ft 407 kts 275°
2026-04-22 17:03 55.51034 75.80744 29946 ft 408 kts 274°
2026-04-22 17:04 55.51290 75.75782 29336 ft 404 kts 274°
2026-04-22 17:04 55.51532 75.70862 28751 ft 400 kts 274°
2026-04-22 17:04 55.51763 75.66004 28169 ft 395 kts 274°
2026-04-22 17:04 55.51990 75.61192 27597 ft 391 kts 274°
2026-04-22 17:05 55.52216 75.56426 27037 ft 388 kts 274°
2026-04-22 17:05 55.52441 75.51767 26491 ft 384 kts 274°
2026-04-22 17:05 55.52666 75.47096 25946 ft 380 kts 274°
2026-04-22 17:05 55.52887 75.42461 25409 ft 377 kts 274°
2026-04-22 17:06 55.53103 75.37862 24871 ft 375 kts 274°
2026-04-22 17:06 55.53314 75.33296 24340 ft 372 kts 274°
2026-04-22 17:06 55.53522 75.28767 23824 ft 369 kts 274°
2026-04-22 17:06 55.53727 75.24265 23314 ft 366 kts 274°
2026-04-22 17:07 55.53927 75.19808 22771 ft 362 kts 274°
2026-04-22 17:07 55.54122 75.15409 22300 ft 357 kts 274°
2026-04-22 17:07 55.54313 75.11073 21865 ft 351 kts 274°
2026-04-22 17:07 55.54502 75.06803 21427 ft 346 kts 274°
2026-04-22 17:08 55.54688 75.02601 21012 ft 341 kts 274°
2026-04-22 17:08 55.54873 74.98451 20600 ft 337 kts 274°
2026-04-22 17:08 55.55057 74.94329 20186 ft 335 kts 274°
2026-04-22 17:08 55.55238 74.90232 19784 ft 334 kts 274°
2026-04-22 17:09 55.55415 74.86146 19372 ft 333 kts 274°
2026-04-22 17:09 55.55588 74.82075 18959 ft 332 kts 274°
2026-04-22 17:09 55.55703 74.79387 18684 ft 331 kts 274°
2026-04-22 17:09 55.55873 74.75326 18268 ft 331 kts 274°
2026-04-22 17:10 55.56094 74.69968 17663 ft 329 kts 274°
2026-04-22 17:10 55.56257 74.65950 17230 ft 328 kts 274°
2026-04-22 17:10 55.56419 74.61949 16800 ft 326 kts 274°
2026-04-22 17:10 55.56580 74.57962 16373 ft 324 kts 274°
2026-04-22 17:11 55.56740 74.54005 15932 ft 323 kts 273°
2026-04-22 17:11 55.56897 74.50060 15513 ft 321 kts 273°
2026-04-22 17:11 55.57049 74.46131 15087 ft 320 kts 273°
2026-04-22 17:11 55.57199 74.42213 14655 ft 318 kts 273°
2026-04-22 17:12 55.57348 74.38321 14231 ft 317 kts 273°
2026-04-22 17:12 55.57499 74.34438 13805 ft 316 kts 273°
2026-04-22 17:12 55.57651 74.30563 13362 ft 316 kts 273°
2026-04-22 17:12 55.57678 74.26701 12903 ft 313 kts 263°
2026-04-22 17:13 55.57204 74.22977 12475 ft 310 kts 250°
2026-04-22 17:13 55.56243 74.19581 12041 ft 309 kts 237°
2026-04-22 17:13 55.54855 74.16694 11606 ft 309 kts 224°
2026-04-22 17:13 55.53771 74.15062 11316 ft 309 kts 221°
2026-04-22 17:14 55.52124 74.12621 10875 ft 308 kts 222°
2026-04-22 17:14 55.50487 74.10190 10436 ft 307 kts 221°
2026-04-22 17:14 55.48871 74.07787 10225 ft 299 kts 222°
2026-04-22 17:14 55.47313 74.05469 10100 ft 288 kts 222°
2026-04-22 17:15 55.46314 74.03987 9949 ft 279 kts 222°
2026-04-22 17:15 55.44356 74.01083 9599 ft 274 kts 222°
2026-04-22 17:15 55.42894 73.98917 9477 ft 274 kts 222°
2026-04-22 17:15 55.41435 73.96760 9344 ft 274 kts 222°
2026-04-22 17:16 55.39975 73.94601 9179 ft 274 kts 221°
2026-04-22 17:16 55.38521 73.92454 8827 ft 272 kts 221°
2026-04-22 17:16 55.37074 73.90317 8453 ft 271 kts 221°
2026-04-22 17:16 55.35636 73.88199 8082 ft 269 kts 221°
2026-04-22 17:17 55.34204 73.86090 7706 ft 268 kts 220°
2026-04-22 17:17 55.32796 73.84021 7344 ft 266 kts 220°
2026-04-22 17:17 55.31380 73.81942 6982 ft 265 kts 220°
2026-04-22 17:17 55.29903 73.80034 6647 ft 262 kts 210°
2026-04-22 17:18 55.28254 73.78645 6263 ft 263 kts 205°
2026-04-22 17:18 55.26592 73.77307 5880 ft 262 kts 205°
2026-04-22 17:18 55.24941 73.75982 5504 ft 260 kts 205°
2026-04-22 17:18 55.23304 73.74670 5168 ft 257 kts 205°
2026-04-22 17:19 55.20055 73.72060 4717 ft 257 kts 204°
2026-04-22 17:19 55.16816 73.69467 4013 ft 255 kts 204°
2026-04-22 17:20 55.13605 73.66907 3310 ft 253 kts 202°
2026-04-22 17:20 55.10408 73.64354 2600 ft 251 kts 202°
2026-04-22 17:21 55.08775 73.63343 2495 ft 249 kts 195°
2026-04-22 17:21 55.05485 73.61568 2496 ft 237 kts 195°
2026-04-22 17:22 55.02477 73.59941 2501 ft 224 kts 195°
2026-04-22 17:22 55.01116 73.58813 2509 ft 214 kts 216°
2026-04-22 17:22 54.99832 73.54544 2509 ft 188 kts 253°
2026-04-22 17:23 54.99559 73.52419 2500 ft 175 kts 253°
2026-04-22 17:23 54.99017 73.48380 2119 ft 172 kts 252°
2026-04-22 17:23 54.98746 73.46347 1813 ft 172 kts 252°
2026-04-22 17:24 54.98482 73.44352 1569 ft 170 kts 252°
2026-04-22 17:24 54.98217 73.42347 1337 ft 170 kts 253°
2026-04-22 17:24 54.97953 73.40355 1148 ft 168 kts 253°
2026-04-22 17:24 54.97697 73.38407 913 ft 161 kts 256°
2026-04-22 17:25 54.97449 73.36550 744 ft 155 kts 256°
2026-04-22 17:25 54.97210 73.34753 571 ft 151 kts 257°
2026-04-22 17:25 54.96974 73.32978 363 ft 150 kts 256°
2026-04-22 17:25 54.96745 73.31304 305 ft 129 kts 257°
2026-04-22 17:26 54.96582 73.30030 315 ft 83 kts 257°
2026-04-22 17:26 54.96483 73.29311 321 ft 43 kts 257°
2026-04-22 17:26 54.96411 73.29161 319 ft 13 kts 170°
2026-04-22 17:26 54.96288 73.29205 316 ft 23 kts 172°
2026-04-22 17:27 54.96186 73.29243 315 ft 0 kts 167°
2026-04-22 17:27 54.96182 73.29245 315 ft 0 kts 166°
2026-04-22 17:28 54.96178 73.29247 315 ft 3 kts 166°
2026-04-22 17:28 54.96110 73.29280 315 ft 14 kts 155°